Find Starlink 32418

NORAD ID: 62429 Int'l Des: 2024-249 Owner: SPXS Country: US Constellation: starlink operational
LEOCIRCULAR

实时位置

正在加载3D地球...

关于 Starlink 32418

正在加载描述...

即将过境

Passes for default location (London). Set your location on the main map for personalized predictions.

高度历史

Loading altitude history...

两行轨道根数

1 62429U 24249W 26124.00265586 .00031842 00000-0 11598-2 0 9995
2 62429 43.0010 1.6403 0001705 285.9957 74.0707 15.27632489 76279
Epoch: May 4, 2026 • Age: 12 hours

当前状态

高度 486.8 km
速度 7.62 km/s
星下点 -21.53°S, 75.71°W
发射日期 Dec 23, 2024
运行时间 1.3 years
类型 internet

技术详情

分类 Payload
质量 730.00 kg
干质量 700.00 kg
总质量 730.00 kg
长度 0.30 m
直径 4.10 m
跨度 29.00 m
形状 Box + pan
制造商 SPXS
平台类型 Starlink V2M
阶段状态 In Orbit
所有者/国家 SPXS/US

Most Searched